Regional Weather Roundup
Issued by NWS

Home | Current Version | Previous Version | Text Only | Print | Product List | Glossary Off
Versions: 1 2 3 4 5 6 7 8 9 10 11 12 13 14 15 16 17 18 19 20 21 22 23 24 25 26 27 28 29 30 31 32 33 34 35 36 37 38 39 40 41 42 43 44 45 46 47 48 49 50

385
ASUS45 KCYS 091310
RWRWY

WYOMING REGIONAL WEATHER ROUNDUP
NATIONAL WEATHER SERVICE CHEYENNE WY
600 AM MST FRI DEC 09 2016

NOTE:  "FAIR" INDICATES FEW OR NO CLOUDS BELOW 12,000 FEET
WITH NO SIGNIFICANT WEATHER AND/OR OBSTRUCTIONS TO VISIBILITY.

WYZ001-091400-
YELLOWSTONE NATIONAL PARK

CITY           SKY/WX    TMP DP  RH WIND       PRES   REMARKS
LK YELLOWSTONE   N/A     17  15  92 VRB3      30.01R
W YELLOWSTONE  NOT AVBL

$$
WYZ002>013-054>058-071-098>099-091400-
NORTHERN WYOMING

CITY           SKY/WX    TMP DP  RH WIND       PRES   REMARKS
JACKSON        CLOUDY    16  16 100 NE5       30.06S WCI   9
CODY           LGT SNOW  -1  -4  87 SE5       30.11S FOG     WCI -11
GREYBULL       CLOUDY     8  -1  66 NW7       30.21R WCI  -3
WORLAND        FAIR       1  -3  83 S7        30.18F WCI -12
SHERIDAN       CLOUDY     3  -2  79 CALM      30.22R
BUFFALO        MOCLDY     1  -4  79 N8        30.11F WCI -13
GILLETTE       FAIR      -3  -7  82 NW5       30.16S WCI -13
HULETT         CLOUDY    -4  -8  84 CALM      30.18F
NEWCASTLE      FLURRIES   9   1  72 N3        30.16S

$$
WYZ014>020-022>026-101>103-091400-
CENTRAL WYOMING

CITY           SKY/WX    TMP DP  RH WIND       PRES   REMARKS
BIG PINEY      LGT SNOW   9   7  92 S5        30.11R FOG     WCI   1
PINEDALE       LGT SNOW  10   9  92 N5        30.11S WCI   2
DUBOIS         CLOUDY    25  18  74 NW13      29.95R WCI  13
LANDER         FAIR       4  -2  76 CALM      30.06R
RIVERTON       FAIR       1  -4  79 SW5       30.06R WCI  -9
CASPER         FAIR      -8 -12  83 W9        30.08R WCI -25
DOUGLAS        FAIR      -1  -5  82 NW6       30.09R WCI -13

$$
WYZ021-027>030-104>119-091400-
SOUTHERN WYOMING

CITY           SKY/WX    TMP DP  RH WIND       PRES   REMARKS
EVANSTON       SNOW      31  28  89 SW20      30.13R VSB 1/2 WCI  19
KEMMERER       LGT SNOW  28  27  93 W13       30.12  WCI  18
FORT BRIDGER   PTSUNNY   32  32 100 SW18G24   30.14S WCI  21
ROCK SPRINGS   LGT SNOW  13  10  88 CALM      30.12S FOG
DIXON          CLOUDY    30  17  57 SW10G17   30.18S WCI  21
RAWLINS        CLOUDY    28  19  69 W31G40    30.04S WCI  12
SARATOGA       FAIR      30  21  69 SW22G29   30.06R WCI  17
LARAMIE        MOCLDY    29  22  75 W14       30.03R WCI  18
CHEYENNE       FAIR      12   7  80 S3        30.00R
TORRINGTON     FAIR      11   6  81 E6        30.07S WCI   1
PINE BLUFFS    FAIR       9   5  85 SW5       30.05F WCI   0

$$




USA.gov is the U.S. government's official web portal to all federal, state and local government web resources and services.